Location: Bradley Quarters
(33.5209°N, 92.1411°W)
Time: 07:11:09
(UTC+00:00)

N. Korean satellite - Visible Passes

Search period start: 04 March 2021 00:00
Search period end: 14 March 2021 00:00
Orbit: 451 x 502 km, 97.2° (Epoch: 03 March)

Date Brightness Start Highest point End Pass type
(mag) Time Alt. Az. Time Alt. Az. Time Alt. Az.
04 Mar 7.1 11:18:49 10° NNE 11:22:21 59° E 11:25:54 10° S visible
05 Mar 9.0 10:52:35 10° NE 10:55:33 24° E 10:58:32 10° SSE visible
06 Mar 10.1 10:27:51 10° E 10:28:39 11° E 10:29:27 10° ESE visible
06 Mar 7.2 11:58:46 10° N 12:02:01 33° WNW 12:05:17 10° SW visible
07 Mar 6.5 11:31:44 10° N 11:35:19 85° WNW 11:38:57 10° SSW visible
08 Mar 8.2 11:05:11 10° NNE 11:08:33 37° E 11:11:55 10° SSE visible
09 Mar 9.7 10:39:21 10° NE 10:41:40 16° E 10:44:00 10° SE visible
10 Mar 6.7 11:44:41 10° N 11:48:13 53° WNW 11:51:46 10° SSW visible
11 Mar 7.2 11:17:52 10° NNE 11:21:27 59° E 11:25:03 10° S visible
12 Mar 9.1 10:51:36 10° NE 10:54:36 24° E 10:57:36 10° SSE visible
13 Mar 10.1 10:26:49 10° E 10:27:39 11° E 10:28:29 10° ESE visible
